TimeEST,TemperatureF,Dew PointF,Humidity,Sea Level PressureIn,VisibilityMPH,Wind Direction,Wind SpeedMPH,Gust SpeedMPH,PrecipitationIn,Events,Conditions,WindDirDegrees,DateUTC
12:58 AM,40.5,37.2,88,30.50,10.0,East,2.3,-,N/A,,Overcast,90,2013-11-06 05:58:00
1:58 AM,40.3,36.7,87,30.51,10.0,WSW,2.3,-,N/A,,Clear,240,2013-11-06 06:58:00
2:58 AM,35.8,35.4,99,30.48,10.0,Calm,Calm,-,N/A,,Mostly Cloudy,0,2013-11-06 07:58:00
3:58 AM,37.6,37.2,99,30.48,10.0,NW,2.3,-,N/A,,Overcast,310,2013-11-06 08:58:00
4:05 AM,37.4,37.4,100,30.45,10.0,NNW,1.2,-,N/A,,Overcast,330,2013-11-06 09:05:00
4:33 AM,37.4,37.4,100,30.44,10.0,ENE,1.2,-,N/A,,Overcast,70,2013-11-06 09:33:00
4:37 AM,37.4,37.4,100,30.44,10.0,Calm,Calm,-,N/A,,Overcast,0,2013-11-06 09:37:00
4:58 AM,38.7,38.1,98,30.47,10.0,Calm,Calm,-,N/A,,Overcast,0,2013-11-06 09:58:00
5:50 AM,39.2,39.2,100,30.43,10.0,SE,1.2,-,N/A,,Overcast,130,2013-11-06 10:50:00
5:58 AM,39.7,39.2,98,30.45,10.0,South,2.3,-,N/A,,Overcast,170,2013-11-06 10:58:00
6:58 AM,39.6,38.8,97,30.45,10.0,Calm,Calm,-,N/A,,Mostly Cloudy,0,2013-11-06 11:58:00
7:58 AM,42.8,41.0,93,30.43,10.0,Calm,Calm,-,N/A,,Mostly Cloudy,0,2013-11-06 12:58:00
8:58 AM,48.2,42.3,80,30.41,10.0,SSW,5.8,-,N/A,,Scattered Clouds,210,2013-11-06 13:58:00
9:58 AM,52.7,44.1,72,30.38,10.0,South,12.7,-,N/A,,Partly Cloudy,190,2013-11-06 14:58:00
10:58 AM,57.2,43.7,61,30.35,10.0,SSW,16.1,25.3,N/A,,Partly Cloudy,200,2013-11-06 15:58:00
11:58 AM,57.7,43.2,58,30.31,10.0,SSW,13.8,23.0,N/A,,Overcast,200,2013-11-06 16:58:00
12:58 PM,59.2,43.0,55,30.27,10.0,South,16.1,-,N/A,,Overcast,190,2013-11-06 17:58:00
1:58 PM,60.4,42.8,52,30.24,10.0,SSW,13.8,19.6,N/A,,Mostly Cloudy,200,2013-11-06 18:58:00
2:58 PM,61.0,43.5,53,30.23,10.0,SSW,11.5,-,N/A,,Clear,200,2013-11-06 19:58:00
3:58 PM,57.0,43.2,60,30.22,10.0,South,10.4,-,N/A,,Partly Cloudy,190,2013-11-06 20:58:00
4:58 PM,56.7,42.6,59,30.21,10.0,SSW,10.4,-,N/A,,Overcast,200,2013-11-06 21:58:00
5:58 PM,56.3,43.0,61,30.19,10.0,SSW,9.2,-,N/A,,Overcast,200,2013-11-06 22:58:00
6:58 PM,55.2,44.8,68,30.17,10.0,South,11.5,-,N/A,,Overcast,190,2013-11-06 23:58:00
7:58 PM,55.0,47.3,75,30.15,10.0,South,10.4,-,N/A,,Overcast,190,2013-11-07 00:58:00
8:58 PM,54.0,48.9,83,30.13,10.0,South,12.7,-,N/A,,Scattered Clouds,190,2013-11-07 01:58:00
9:58 PM,52.7,50.5,92,30.11,10.0,South,11.5,-,N/A,,Clear,190,2013-11-07 02:58:00
10:58 PM,52.5,51.4,96,30.08,10.0,South,12.7,-,N/A,,Partly Cloudy,190,2013-11-07 03:58:00
11:58 PM,52.2,51.6,98,30.06,10.0,South,11.5,-,N/A,,Scattered Clouds,190,2013-11-07 04:58:00